Current Version              Previous Version:    01  02  03  04  05  06  07  08  09  10  11  12  13  14  15  16  17  18  19  20  21  22  23  24  25  26  27  28  29  30  
   31  32  33  34  35  36  37  38  39  40  41  42  43  44  45  46  47  48  49  50  51  52  53  54  55  56  57  58  59  60  

[Printable]
649
ASUS44 KEWX 012310
RWRTX
SOUTH TEXAS REGIONAL WEATHER ROUNDUP
NATIONAL WEATHER SERVICE AUSTIN/SAN ANTONIO TX
600 PM CDT FRI AUG 01 2014

NOTE: "FAIR" INDICATED FEW OR NO CLOUDS BELOW 12,000 FEET WITH NO
SIGNIFICANT WEATHER AND/OR OBSTRUCTIONS TO VISIBILITY.

* - THESE STATIONS ARE NOT NWS OR FAA STATIONS...AND ARE NOT SUBJECT
    TO NWS AND FAA QUALITY CONTROL.

TXZ171-172-183>190-020000-
TEXAS HILL COUNTRY AND EDWARDS PLATEAU

CITY           SKY/WX    TMP DP  RH WIND       PRES   REMARKS
JUNCTION       MOSUNNY   90  59  35 E9G20     30.00F
*LLANO         MOSUNNY   90  61  37 NE8       30.02S
BURNET         MOSUNNY   83  62  49 NE12      30.03F
*HORSESHOE BAY MOSUNNY   88  60  38 N6        29.99F
*KERRVILLE     MOSUNNY   92  59  32 NE7       30.00S HX  91
*FREDERICKSBRG MOSUNNY   87  56  34 N7        30.01F
*ROCKSPRINGS   MOSUNNY   90  57  33 CALM      30.03F
*BOERNE STAGE  PTSUNNY   88  57  35 NE8       29.99F
*CASTROVILLE   MOSUNNY   94  62  34 NE10      29.94F HX  95
HONDO          MOSUNNY   94  67  41 NE12      29.94F HX  97
*UVALDE        MOSUNNY   88  72  58 NW6       29.94F HX  94
DEL RIO        MOSUNNY   94  64  37 CALM      29.92F HX  95
LAUGHLIN AFB   MOSUNNY   95  64  36 N7        29.92F HX  97
CARRIZO SPRGS  TSTM      84  72  65 N12G23    29.92R
$$

TXZ173-191>194-202-209-217>225-228-020000-
CENTRAL AND SOUTH CENTRAL TEXAS

CITY           SKY/WX    TMP DP  RH WIND       PRES   REMARKS
GEORGETOWN     CLOUDY    84  64  51 N10       29.99F
AUSTIN/BERGSTM MOSUNNY   89  65  44 N14G21    29.95F HX  91
AUSTIN/MABRY   MOSUNNY   88  65  46 VRB7      29.98S HX  90
*AUSTIN/EXEC   MOSUNNY   84  64  51 NE12      29.98S
*LAGO VISTA    MOSUNNY   86  63  45 NE9G17    30.01F
SAN MARCOS     SUNNY     91  63  38 N15       29.96S HX  92
NEW BRAUNFELS  MOSUNNY   93  62  35 NE9       29.92F HX  93
RANDOLPH AFB   MOSUNNY   93  63  37 NE14      29.93F HX  94
PT SAN ANTONIO MOSUNNY   93  66  39 VRB3      29.91F HX  96
SAN ANTONIO    PTSUNNY   93  65  39 N10       29.94F HX  95
STINSON FIELD  MOSUNNY   94  65  38 N6        29.91F HX  96
*PLEASANTON    MOSUNNY   94  65  37 N8        29.91F HX  96
*LA GRANGE     SUNNY     91  69  47 N7        29.92F HX  96
*GIDDINGS      MOSUNNY   88  63  43 N7        29.99S
*GONZALES      MOSUNNY   93  68  44 NE5       29.92F HX  97
$$

TXZ163>164-176>182-195>201-210>213-226-227-235-020000-
SOUTHEAST TEXAS

CITY           SKY/WX    TMP DP  RH WIND       PRES   REMARKS
COLLEGE STN    MOSUNNY   81  69  67 N13       29.98R
*BRYAN         CLOUDY    79  69  72 N9G20     29.98S
*CALDWELL      MOSUNNY   82  68  61 N7        30.00S
*CROCKETT      CLOUDY    77  72  83 N3        30.01S
*BRENHAM       MOSUNNY   85  66  53 N9G17     29.95F
HUNTSVILLE     CLOUDY    78  68  71 N8        29.98S
CONROE         MOSUNNY   83  69  62 N12       29.96S
HOUSTON BUSH   PTSUNNY   86  69  56 N9        29.93F HX  90
HOUSTON HOBBY  PTSUNNY   87  68  52 NW8       29.91F HX  90
*HOUSTON SW AP   N/A     86  69  57 NW8       29.93F HX  90
PEARLAND       CLOUDY    87  70  56 NW9       29.93F HX  92
HOUSTON HOOKS  MOSUNNY   84  71  65 N5        29.94S
ELLINGTON FLD  NOT AVBL
SUGAR LAND     PTSUNNY   87  71  58 N10       29.92F HX  93
*HOUSTON EXEC  MOSUNNY   84  70  61 N7        29.95S
*CLEVELAND MUN PTSUNNY   80  72  75 N5        29.95S
*WHARTON       MOSUNNY   88  71  58 N5        29.93F HX  93
$$

TXZ214>216-236>238-020000-
THE UPPER TEXAS COAST

CITY           SKY/WX    TMP DP  RH WIND       PRES   REMARKS
*ORANGE        CLOUDY    83  73  71 W5        29.93F HX  90
PORT ARTHUR    CLOUDY    84  73  69 NW8       29.91S HX  90
GALVESTON      CLOUDY    87  74  64 SW13      29.91F HX  95
ANGLETON       LGT RAIN  81  77  88 W3        29.92F
*BAY CITY      CLOUDY    83  75  76 SW6       29.93S HX  91
PALACIOS       LGT RAIN  83  77  82 E7        29.91F HX  92
$$

TXZ229>234-239>247-020000-
TEXAS COASTAL BEND AND RIO GRANDE PLAINS

CITY           SKY/WX    TMP DP  RH WIND       PRES   REMARKS
VICTORIA       CLOUDY    94  72  48 NE6       29.90S HX 102
*BEEVILLE      MOSUNNY   90  73  57 S6        29.88F HX  97
ROCKPORT       MOSUNNY   86  76  71 SE12      29.88F HX  96
*PORT ARANSAS  MOSUNNY   85  78  78 SE12      29.90F HX  97
*PORT LAVACA   HVY RAIN  87  76  69 S6        29.90S HX  97
*INGLESIDE     MOSUNNY   90  74  59 SE17      29.89F HX  99
CORPUS CHRISTI CLOUDY    92  74  55 SE17      29.88F HX 101
CORPUS NAS     PTSUNNY   88  77  69 SE17      29.89F HX 100
*ROBSTOWN      NOT AVBL
ALICE          MOSUNNY   97  73  45 SE13G23   29.85F HX 107
KINGSVILLE NAS PTSUNNY   94  78  60 SE17      29.87F HX 110
COTULLA        MOSUNNY   98  63  31 NE7G18    29.88F HX 100
*FAITH RANCH     N/A    N/A N/A N/A MISG        N/A
LAREDO         MOSUNNY  102  66  30 NE9       29.87F HX 106
$$

TXZ248>255-020000-
DEEP SOUTH TEXAS

CITY           SKY/WX    TMP DP  RH WIND       PRES   REMARKS
BROWNSVILLE    MOSUNNY   92  74  55 SE15G23   29.88F HX 101
PORT ISABEL    SUNNY     89  76  65 SE18      29.88S HX 100
*SOUTH PADRE   SUNNY     88  79  74 E7        29.90S HX 102
HARLINGEN      SUNNY     95  73  48 SE17      29.85S HX 104
*HEBBRONVILLE  MOSUNNY   98  62  30 E13       29.87F HX  99
MCALLEN        MOSUNNY   99  71  40 E15       29.84F HX 107
*WESLACO       SUNNY     98  67  36 SE14      29.85S HX 102
FALFURRIAS     MOSUNNY   86  66  51 E12       29.86F
EDINBURG       MOSUNNY  101  64  29 SE7       29.85S HX 103
*ZAPATA        MOSUNNY  100  62  28 E6        29.83F HX 101
$$

TXZ213>215-236>238-242>244-246-247-251-254-255-020000-
CMAN STATIONS

STATION/POSITION TIME  TEMP    WIND        PRES    WAVE
                       AIR SEA DIR/SP/G            HT/PER
                 (UTC) (F)     (DEG/KT/KT) (MB)    (FT/S)
SABINE PASS      2300   86 87  340/  8/ 14 1013.0
SEA RIM ST PARK  2200   85     340/ 13/ 18 1013.3
NORTH JETTY/GLS  2300   81 90   80/  7/ 10   N/A
EAGLE POINT      2300   85 86   10/  7/ 10 1013.1
MORGANS POINT    2300   85 91  330/  8/ 11 1013.1
MISSION/ARANSAS  2200   84     150/ 14     1014.0
PORT O`CONNOR    2300          150/ 11/ 12   N/A
PORT ARANSAS     2200   82 85  120/ 11/ 12 1013.6
MALAQUITE BEACH  2300   81 82  110/ 12/ 13 1011.7
BAFFIN BAY       2300   84 86  110/ 13/ 16 1012.4
PORT ISABEL      2300   85 84  110/ 15/ 19 1012.8
$$

GMZ080-GMZ150>470-020000-
OFFSHORE BUOY REPORTS

STATION/POSITION TIME  TEMP    WIND        PRES    WAVE
                       AIR SEA DIR/SP/G            HT/PER
                 (UTC) (F)     (DEG/KT/KT) (MB)    (FT/S)
20 E GALVESTON   2300   84 87  250/ 12/ 14 1012.8
90 E PT ARANSAS  2300   84 86   50/  2/  2 1013.6    2/ 5
35 NE PT MANSFLD 2300   84 85  150/ 14/ 14 1012.1    2/ 6
200 E PT ISABEL  2300   86 88   10/  2/  4 1013.8    1/ 4
$$